Saltar para o conteúdo principal

Sintra/Tapada do Mouco

ID 1210752 · 38.7817, -9.4004 mapa

Última leitura · 2026-05-09 19:00 (Europe/Lisbon)

Temperatura
11.8 °C
Humidade
94 %
Pressão
Precipitação
0.1 mm
Radiação
Velocidade do vento
9.0 km/h
Direcção do vento
S · Sul

Histórico de 24 horas

Hora (Europe/Lisbon) Temperatura Humidade Pressão Chuva Vento Direcção
2026-05-09 19:00 11.8 °C 94 % 0.1 mm 9.0 km/h S
2026-05-09 18:00 11.4 °C 98 % 0.0 mm 7.2 km/h S
2026-05-09 17:00 11.1 °C 96 % 1.2 mm 8.6 km/h S
2026-05-09 16:00 12.3 °C 96 % 0.8 mm 15.5 km/h S
2026-05-09 15:00 12.2 °C 98 % 0.7 mm 10.4 km/h S
2026-05-09 14:00 12.6 °C 93 % 0.0 mm 14.4 km/h SE
2026-05-09 13:00 12.3 °C 91 % 0.0 mm 14.0 km/h SE
2026-05-09 12:00 12.2 °C 93 % 0.0 mm 15.1 km/h SE
2026-05-09 11:00 11.1 °C 100 % 0.0 mm 10.4 km/h SE
2026-05-09 10:00 10.5 °C 100 % 0.0 mm 9.0 km/h SE
2026-05-09 09:00 9.6 °C 100 % 0.1 mm 6.8 km/h SE
2026-05-09 08:00 8.7 °C 100 % 0.0 mm 6.8 km/h SE
2026-05-09 07:00 8.4 °C 100 % 1.6 mm 5.8 km/h SE
2026-05-09 06:00 8.5 °C 100 % 15.8 mm 7.9 km/h SE
2026-05-09 05:00 9.7 °C 100 % 2.0 mm 8.3 km/h SE
2026-05-09 04:00 9.7 °C 100 % 0.0 mm 9.7 km/h SE
2026-05-09 03:00 9.2 °C 100 % 0.0 mm 5.0 km/h SE
2026-05-09 02:00 8.8 °C 100 % 0.4 mm 6.5 km/h SE
2026-05-09 01:00 10.8 °C 100 % 0.7 mm 9.4 km/h SE
2026-05-09 00:00 10.8 °C 100 % 0.3 mm 19.1 km/h SE
2026-05-08 23:00 11.2 °C 99 % 0.7 mm 20.9 km/h SE
2026-05-08 22:00 11.4 °C 97 % 0.0 mm 15.1 km/h SE
2026-05-08 21:00 11.8 °C 96 % 0.0 mm 15.1 km/h SE
2026-05-08 20:00 11.7 °C 98 % 0.0 mm 12.2 km/h SE